Location: Granada
(37.1830°N, 3.6000°W)
Time: 20:55:08
(UTC+02:00)

Iridium 70 - Visible Passes

Search period start: 23 June 2017 00:00
Search period end: 03 July 2017 00:00
Orbit: 776 x 779 km, 86.4° (Epoch: 22 June)

Date Brightness Start Highest point End Pass type
(mag) Time Alt. Az. Time Alt. Az. Time Alt. Az.
23 Jun 8.1 00:24:49 10° WSW 00:27:43 15° WNW 00:30:37 10° NW visible
23 Jun 6.5 22:08:52 10° SE 22:13:17 29° E 22:17:44 10° NNE visible
23 Jun 7.3 23:49:30 10° SW 23:53:55 28° W 23:58:21 10° NNW visible
24 Jun 6.3 23:15:11 10° SSW 23:20:14 52° W 23:25:20 10° N visible
25 Jun 5.5 22:41:30 10° S 22:46:42 82° E 22:51:55 10° N visible
26 Jun 6.0 22:08:23 10° SSE 22:13:16 42° E 22:18:10 10° NNE visible
26 Jun 7.9 23:50:30 10° WSW 23:54:08 19° WNW 23:57:50 10° NNW visible
27 Jun 7.0 23:15:40 10° SSW 23:20:24 35° W 23:25:10 10° NNW visible
28 Jun 5.9 22:41:36 10° S 22:46:46 68° W 22:51:59 10° N visible
29 Jun 5.6 22:08:09 10° S 22:13:16 63° E 22:18:26 10° N visible
29 Jun 8.3 23:52:07 10° WSW 23:54:27 13° WNW 23:56:46 10° NW visible
30 Jun 7.7 23:16:25 10° SW 23:20:36 24° W 23:24:49 10° NNW visible
01 Jul 6.6 22:41:56 10° SSW 22:46:54 45° W 22:51:54 10° N visible
02 Jul 5.6 22:08:07 10° S 22:13:19 87° W 22:18:34 10° N visible
